Location: Lake Crest
(37.6062°N, 88.9176°W)
Time: 20:44:08
(UTC+00:00)

Cosmos 1110 Rocket - Pass Details

Date: 15 December 2019
Orbit: 752 x 782 km, 74.0° (Epoch: 25 January)

Event Time Altitude Azimuth Distance (km) Brightness Sun altitude
Rises 11:00:44 0° 198° (SSW) 3,200 7.2 -23.5°
Reaches altitude 10° 11:03:06 10° 199° (SSW) 2,275 6.4 -23.0°
Maximum altitude 11:08:16 84° 288° (WNW) 762 3.8 -22.0°
Drops below altitude 10° 11:13:26 10° 17° (NNE) 2,281 6.5 -21.0°
Sets 11:15:49 0° 18° (NNE) 3,209 7.3 -20.6°
